GEFSCGP_500_meanwind_024.txt.gz
Wind_Speed
18 19 21 22 24 27 29 31 33 35 36 37 38 38 37 37 36 35 34 31 30 29 30 32 34 35 36 36 36 36 35 34 34 34 35 35 36 36 37 37 38 38 39 40
13 15 16 18 21 23 26 29 31 33 33 34 35 35 34 34 34 33 31 30 30 31 33 35 35 35 35 35 35 34 33 32 34 35 35 36 36 37 38 39 39 39 39 39
10 11 12 14 17 21 24 26 29 30 31 31 32 32 32 33 33 32 32 32 33 35 36 36 34 32 31 32 33 32 32 33 34 34 34 34 35 36 37 38 39 40 40 40
10 11 13 14 16 19 22 24 26 27 27 27 29 30 31 32 33 34 34 34 35 35 34 32 30 28 29 30 31 31 32 32 31 31 31 31 32 33 35 37 38 39 40 41
9 11 14 15 16 18 20 22 23 24 24 25 27 29 29 30 31 32 32 31 30 28 27 25 24 25 27 28 29 30 30 29 28 26 26 27 29 31 33 35 37 38 39 40
8 9 10 12 13 14 16 17 18 19 19 20 22 23 23 23 23 23 23 22 22 22 22 22 23 24 26 27 28 28 27 26 24 24 24 26 28 30 32 34 35 36 38 38
4 6 8 9 10 11 12 13 14 14 14 16 17 18 17 18 20 20 19 20 21 22 22 22 23 23 24 25 26 25 25 25 25 26 27 29 30 32 32 34 35 36 36 37
4 5 7 9 11 12 12 13 13 14 14 14 16 17 16 18 18 19 20 21 22 22 22 22 23 23 24 25 25 26 27 29 30 31 32 33 34 35 35 35 36 37 37 37
5 5 8 10 11 13 13 13 14 14 14 14 15 16 18 18 18 19 20 20 21 21 21 22 24 25 27 28 29 30 31 33 34 36 36 37 37 38 37 37 37 38 38 38
7 7 7 10 11 11 12 13 14 15 16 16 16 18 20 20 21 22 22 22 23 24 25 26 28 29 31 33 34 35 36 37 38 39 39 39 39 39 39 38 38 39 39 39
8 9 9 10 9 11 12 13 14 16 18 20 20 20 20 22 24 26 27 28 28 29 30 31 33 34 36 38 39 40 40 40 40 41 40 40 41 41 40 40 39 39 39 39
9 11 12 13 13 13 14 16 18 20 21 23 25 27 25 26 28 30 31 32 33 34 35 36 38 40 42 43 44 45 45 45 45 45 44 43 42 42 41 40 39 39 39 38
11 12 14 15 17 17 18 19 22 24 25 27 28 32 32 33 34 35 36 37 38 39 41 42 44 46 48 49 50 51 51 50 50 49 47 45 44 43 42 41 40 39 39 38
13 13 15 17 19 20 21 22 25 27 30 31 31 34 36 37 38 39 41 42 43 45 47 49 51 53 54 55 55 56 56 55 54 53 51 49 47 45 44 42 41 40 39 38
14 15 17 18 20 21 21 22 25 28 31 33 34 35 37 38 40 42 44 46 48 50 52 55 57 59 60 60 60 61 60 59 58 57 56 54 52 49 47 45 42 41 39 37
18 19 19 20 22 23 25 26 28 30 32 34 35 37 38 40 42 45 48 50 52 55 57 60 62 63 64 64 65 65 64 63 62 61 61 60 57 54 50 47 44 42 40 37
21 23 24 23 24 27 28 29 31 33 34 36 39 41 43 44 46 49 52 55 58 61 63 64 66 66 68 69 70 70 69 69 69 68 67 65 62 59 55 50 47 43 40 36
24 26 27 28 29 30 32 33 35 37 40 41 43 45 46 48 50 53 58 61 63 66 68 70 72 73 75 76 77 76 76 76 75 74 72 70 67 63 59 53 48 44 40 36
27 28 30 31 33 35 36 38 40 42 43 45 46 48 52 55 57 60 65 68 71 73 75 77 79 80 81 81 82 82 81 79 78 76 73 71 68 64 60 55 49 45 41 37
27 29 31 33 35 37 39 40 41 43 45 48 51 55 59 62 66 67 71 74 77 79 81 82 83 83 83 82 81 79 76 73 70 66 63 60 59 58 55 53 50 46 42 38
27 29 31 32 34 36 38 39 42 46 50 54 58 62 66 70 74 77 79 81 82 81 79 78 76 74 72 70 67 64 60 56 53 50 48 46 46 48 49 49 49 46 43 39
29 30 30 31 33 36 39 43 47 52 56 61 65 70 74 78 81 81 80 77 73 68 65 62 60 57 54 52 50 46 43 40 39 38 38 39 40 41 42 45 48 47 43 40
30 31 31 33 36 41 46 51 55 60 64 69 74 78 82 83 82 77 70 63 57 53 51 48 46 43 41 41 40 38 37 37 37 36 36 37 38 37 37 42 46 47 44 40
29 31 34 38 42 46 52 56 61 66 70 75 79 81 81 77 70 61 55 50 46 44 43 42 42 41 40 40 41 41 40 40 40 38 36 36 34 33 34 41 46 46 44 41
33 36 40 44 48 52 56 61 66 71 75 78 79 76 70 62 54 49 45 43 42 43 43 43 43 43 42 42 42 43 43 43 41 38 36 35 33 31 32 39 45 46 43 41
36 41 46 49 53 58 62 66 71 75 77 77 73 65 55 49 46 43 43 43 43 44 45 46 46 46 47 47 46 45 44 43 41 38 35 32 30 29 30 36 41 44 42 40

GEFSCGP_500_meanwind_030.txt.gz
Wind_Speed
11 11 13 16 19 23 26 29 31 36 38 37 39 40 41 41 40 39 37 36 34 34 34 35 35 35 36 37 38 38 37 35 33 30 27 26 24 22 20 18 18 18 19 20
7 8 11 13 15 17 20 22 24 31 34 35 37 37 38 38 36 35 34 33 32 33 33 34 34 36 37 38 38 38 36 35 32 28 27 25 22 19 17 17 16 16 17 18
2 7 7 9 10 11 13 15 19 24 27 28 30 28 30 32 32 32 32 31 31 31 32 34 35 37 38 38 38 37 35 33 30 28 26 24 21 19 18 18 19 19 19 20
5 6 7 7 9 9 11 16 18 20 20 19 23 20 23 28 28 30 30 30 30 31 32 34 36 38 38 37 36 36 34 33 30 28 26 24 22 22 22 22 23 23 23 23
8 8 8 9 11 11 13 15 16 17 17 17 18 16 18 26 25 27 28 29 28 29 31 32 34 34 34 35 34 34 34 33 31 28 26 26 25 26 26 26 27 27 26 26
8 9 9 10 11 11 12 12 13 13 13 12 14 12 15 20 20 21 22 22 23 24 26 28 30 31 33 34 35 36 35 34 32 29 29 29 30 30 30 30 29 29 28 28
8 8 9 9 8 11 11 10 10 10 10 11 15 13 17 17 16 18 19 20 21 23 25 28 30 32 34 35 36 36 36 36 35 34 34 34 35 34 34 33 32 31 30 29
6 7 10 9 9 10 11 11 11 11 12 13 18 17 19 17 18 19 20 21 23 24 27 29 31 33 35 37 38 39 39 39 39 39 39 39 38 37 36 34 33 32 31 29
7 7 11 10 9 10 10 10 12 14 14 15 14 20 20 19 21 22 23 25 26 28 30 32 34 35 37 38 40 41 42 43 43 43 42 41 40 38 37 35 34 33 32 31
6 6 8 10 10 9 10 11 12 13 14 15 15 18 23 21 22 25 27 29 31 34 36 37 38 40 41 42 44 45 46 47 47 46 45 44 43 41 40 39 37 36 34 33
6 6 7 10 10 12 13 13 14 15 17 19 18 22 26 26 27 30 32 34 37 39 41 42 44 45 46 47 49 49 50 51 51 51 50 49 48 46 45 43 41 39 37 35
7 8 9 12 13 14 15 16 18 19 21 23 24 28 27 29 31 33 36 38 40 42 44 46 47 48 49 51 52 53 54 55 56 56 56 55 53 52 50 49 46 44 41 39
9 11 12 14 18 20 19 19 20 22 24 25 27 32 32 35 36 38 39 41 42 44 45 47 48 50 52 53 55 56 57 59 61 62 62 61 59 58 57 54 51 49 46 43
13 13 15 15 17 21 23 24 24 25 27 29 31 36 38 39 41 42 43 44 46 47 49 51 52 53 55 57 59 60 62 63 65 66 66 66 65 65 64 62 58 54 51 47
15 16 18 20 21 23 24 25 26 27 30 32 34 37 40 41 43 44 45 47 48 50 53 55 57 59 61 63 65 66 68 69 70 71 72 72 71 70 69 68 64 60 57 52
17 18 19 21 22 24 26 26 28 30 31 33 35 38 40 42 44 46 49 52 55 58 60 63 65 67 69 71 73 74 76 77 78 78 79 78 79 77 77 75 70 65 62 58
18 20 21 23 25 27 28 28 30 31 33 34 37 41 44 47 50 53 56 60 63 66 70 72 75 77 78 79 80 81 81 82 83 84 84 84 83 82 81 79 75 71 66 63
20 21 23 25 27 28 28 29 31 33 35 39 43 47 50 54 57 60 64 69 71 74 77 79 78 77 74 71 68 67 67 68 69 70 72 74 76 78 78 78 76 73 69 66
22 24 25 26 27 30 29 31 35 38 42 45 49 52 56 60 63 67 72 76 78 79 77 73 66 60 54 50 47 46 45 45 46 48 49 52 55 58 60 63 66 67 66 64
24 25 27 28 29 32 35 38 40 44 48 51 55 59 63 67 70 73 77 78 76 69 61 54 48 43 41 39 39 38 37 36 36 35 35 35 35 37 40 43 47 50 53 54
27 28 28 30 33 36 38 41 44 47 52 56 60 64 68 73 76 78 76 70 60 52 47 43 41 40 40 40 41 41 40 39 38 36 34 31 30 28 28 29 32 36 39 42
28 29 31 33 36 40 43 45 48 52 56 61 65 69 73 76 77 73 64 54 47 43 42 41 40 40 41 42 43 43 42 42 41 39 37 34 31 29 27 25 25 28 32 35
29 31 33 35 37 41 46 50 53 57 61 65 70 74 77 77 71 61 50 43 41 41 41 42 43 43 44 45 46 45 44 44 43 42 40 37 34 30 29 27 27 27 29 33
30 33 35 38 41 44 48 52 56 61 65 69 74 76 75 69 58 47 41 40 40 41 43 45 45 46 47 48 48 48 48 47 45 43 41 38 35 32 30 29 27 27 27 32
34 36 39 41 44 47 50 55 59 63 67 72 75 73 67 58 47 41 39 40 42 44 46 47 49 50 50 51 51 50 49 48 44 42 40 37 35 33 31 29 28 27 27 30
36 39 42 44 48 51 54 58 62 65 70 74 74 68 56 47 41 39 40 43 45 47 48 50 52 53 53 52 50 49 48 45 41 38 36 34 32 31 31 30 29 29 28 28

GEFSCGP_500_meanwind_036.txt.gz
Wind_Speed
3 1 1 8 15 17 16 15 12 12 19 27 27 24 22 26 29 31 35 37 38 42 43 44 45 44 44 44 45 43 40 40 39 38 37 35 33 31 29 27 25 25 24 22
1 4 8 11 11 10 9 11 14 16 21 25 28 28 25 26 30 36 38 39 41 43 42 43 43 43 43 42 39 37 35 35 37 37 36 35 33 31 27 26 25 24 23 22
6 5 8 7 5 5 6 10 13 18 21 22 21 20 18 20 26 32 34 34 36 39 41 42 41 39 38 37 37 35 35 36 37 37 36 34 33 31 30 27 25 23 23 22
4 7 10 5 7 8 9 13 17 19 20 20 17 18 19 22 26 30 32 32 34 34 37 38 41 41 38 37 36 35 37 36 36 37 35 35 33 30 29 27 25 24 24 24
5 8 10 7 9 11 12 15 16 15 14 14 13 17 20 24 27 30 30 30 33 34 36 37 37 37 39 38 37 34 34 35 36 36 36 37 34 30 28 26 26 26 26 26
1 6 7 7 8 10 11 9 6 9 15 20 21 21 22 24 25 29 30 31 33 34 34 34 35 36 37 36 37 36 36 36 37 37 37 37 35 32 30 28 28 29 30 30
4 6 6 7 9 11 12 10 11 16 22 26 19 13 17 20 22 27 30 31 32 33 34 35 35 36 38 39 39 40 40 39 40 40 40 40 38 36 35 34 33 33 34 34
11 9 7 10 12 11 10 9 11 16 18 22 24 21 21 24 27 29 29 30 32 34 35 37 38 39 40 41 42 43 44 44 44 45 45 45 44 42 41 40 39 39 39 39
8 8 8 12 13 11 10 9 10 15 14 14 17 26 29 30 30 28 28 32 35 37 39 40 42 43 44 46 47 48 49 50 50 51 51 50 50 50 49 48 47 46 46 44
7 7 6 8 10 12 14 15 14 15 16 17 15 26 34 34 32 31 33 37 39 40 42 44 46 47 48 50 52 53 54 55 55 56 56 57 56 56 56 56 55 54 52 50
7 7 6 8 11 10 13 15 18 19 19 21 21 28 32 35 35 38 40 41 43 45 47 49 50 52 53 54 55 56 57 58 59 60 61 61 61 61 60 60 60 59 58 57
9 9 8 9 13 11 11 16 20 21 22 23 25 31 34 36 38 40 42 45 48 50 51 53 55 56 56 57 58 60 61 62 63 63 64 65 65 65 65 65 64 63 62 61
11 10 10 11 16 17 17 20 21 23 26 28 29 35 37 38 41 43 45 49 51 54 55 57 59 60 61 62 63 64 65 66 67 67 68 68 69 69 69 69 68 68 67 65
11 11 11 10 12 15 17 19 22 25 28 30 32 38 41 42 44 47 50 53 56 58 61 63 64 66 67 69 70 71 72 73 73 73 73 74 74 74 74 74 74 73 72 70
11 11 12 13 13 15 18 20 23 26 29 32 36 40 45 47 49 52 55 58 61 64 66 67 69 71 73 75 76 76 75 74 73 72 71 71 71 72 73 74 76 76 76 75
13 13 14 15 16 17 20 22 26 31 34 38 40 43 48 51 54 57 59 62 65 68 70 72 75 76 77 75 72 68 64 60 57 55 54 53 53 54 56 59 63 67 70 73
15 17 19 20 19 21 23 26 30 35 39 43 46 48 51 54 57 59 62 65 69 71 74 76 76 73 68 61 54 50 47 45 44 42 40 39 39 39 40 40 42 45 50 56
17 19 22 23 23 23 27 29 34 38 41 46 48 50 53 57 60 62 65 69 71 73 74 70 64 56 49 44 41 41 40 39 38 37 36 36 36 36 35 36 36 37 37 39
22 23 24 25 25 29 33 34 38 42 45 48 51 54 58 61 63 64 68 71 72 69 63 55 47 41 39 38 38 38 38 38 37 36 36 36 36 35 35 34 34 33 33 32
26 27 27 28 30 33 36 39 43 45 48 53 55 58 61 63 66 68 69 70 65 57 49 43 40 39 40 40 41 42 41 41 41 40 40 39 38 37 36 35 33 33 32 30
23 25 27 29 32 37 39 43 45 47 50 52 55 58 62 66 69 70 67 61 52 45 41 41 42 43 44 45 46 45 45 45 45 45 44 43 42 40 38 35 34 33 33 31
23 26 29 32 35 39 42 44 47 50 53 56 60 63 66 69 69 65 59 51 45 42 42 44 46 47 48 49 49 49 48 48 48 48 47 46 45 43 40 37 35 33 32 31
25 27 31 34 37 41 44 47 50 53 56 60 63 66 69 70 65 58 51 45 43 44 46 48 50 51 51 51 52 51 51 51 50 49 48 46 44 42 40 37 35 34 32 30
31 31 33 36 39 43 47 50 52 55 58 62 65 68 69 65 58 52 47 45 45 47 49 51 53 53 53 52 52 52 52 51 50 48 45 43 41 39 38 36 34 32 31 30
29 33 36 39 43 44 46 50 53 56 59 63 66 69 66 60 55 50 47 46 48 51 52 54 54 54 54 52 51 51 49 47 45 42 39 36 34 33 33 32 30 29 29 28
32 35 38 41 43 46 48 51 55 58 61 64 67 68 62 57 53 49 48 49 51 53 54 54 54 54 53 51 49 46 43 40 38 36 33 31 29 27 27 27 26 27 27 27

GEFSCGP_500_meanwind_042.txt.gz
Wind_Speed
12 12 13 13 12 11 11 12 12 12 13 14 16 19 22 26 29 32 35 37 39 41 42 41 42 42 44 46 47 45 45 41 37 34 27 22 22 22 21 21 22 22 23 23
10 10 8 7 7 9 11 15 18 19 18 19 21 23 27 29 32 34 36 38 40 41 41 41 40 42 43 44 44 43 42 39 35 33 25 21 21 21 21 21 21 23 24 25
6 6 6 7 9 11 13 17 21 24 26 26 26 27 29 32 34 35 35 36 36 37 37 38 39 41 42 42 41 41 39 37 35 31 27 25 24 22 21 21 21 22 24 25
8 8 7 8 8 10 12 15 18 21 24 27 28 30 30 32 34 35 34 34 33 34 35 37 38 39 40 40 40 39 37 36 34 32 29 27 27 25 23 23 23 23 24 24
7 7 6 5 5 6 8 10 13 15 17 19 21 24 25 29 31 32 33 33 33 33 34 35 36 37 38 38 39 39 37 36 35 33 32 31 29 28 27 27 26 25 25 24
5 4 4 3 3 5 8 10 10 11 11 12 14 19 20 23 24 27 31 33 33 33 34 34 35 37 38 40 42 41 40 38 37 37 35 34 33 33 32 32 32 31 30 29
3 2 1 1 3 5 8 10 9 9 10 12 15 19 20 22 22 22 22 25 28 31 33 34 36 38 40 43 44 44 44 43 43 42 42 41 40 40 39 39 39 38 37 36
7 4 2 3 6 8 8 11 13 13 13 15 17 20 21 23 24 25 26 27 28 30 31 33 36 40 43 45 46 47 48 49 49 49 48 48 47 46 45 45 44 44 43 43
9 7 5 7 9 11 12 14 16 17 17 18 20 21 22 24 27 29 31 33 33 35 36 39 42 46 48 50 52 53 53 53 53 53 53 53 52 52 52 51 50 50 49 48
11 10 8 9 12 14 16 18 19 19 18 20 22 25 27 29 31 34 36 38 41 43 45 47 49 52 54 56 58 58 59 59 59 59 59 58 57 57 56 56 56 55 55 54
10 10 10 11 12 13 15 17 17 17 18 22 25 28 31 33 36 39 41 43 45 47 49 51 53 55 56 58 60 62 64 65 65 65 65 65 64 63 62 61 60 60 59 59
11 11 12 12 13 14 15 17 18 18 21 24 28 32 35 38 41 43 45 47 49 51 53 55 57 59 61 63 65 67 68 69 70 71 71 69 69 67 66 65 64 64 64 64
10 11 11 11 13 14 17 18 20 21 24 27 31 35 39 42 44 46 48 50 53 55 57 60 62 65 67 69 70 72 73 73 72 71 68 65 63 62 61 61 61 62 62 63
10 11 11 13 15 17 18 19 20 22 25 29 33 37 40 43 45 47 50 53 56 58 61 64 66 69 71 71 71 70 68 65 63 61 58 55 52 50 48 48 49 51 53 56
10 11 12 15 18 19 19 20 22 25 28 32 35 38 41 43 46 48 52 55 58 61 64 67 69 70 69 68 65 62 58 55 51 48 45 43 41 40 39 39 39 40 41 44
10 11 13 15 17 18 18 20 24 27 29 32 34 37 41 44 47 50 54 58 61 64 66 68 68 66 64 61 56 52 48 45 43 41 40 40 40 39 38 36 35 34 34 35
10 11 12 14 17 19 20 23 27 30 32 34 37 41 44 46 49 53 57 61 64 66 66 65 62 60 56 51 47 45 44 43 44 44 44 43 43 41 39 38 36 34 33 32
11 13 15 18 21 23 25 28 31 34 36 38 41 45 48 51 53 56 60 64 65 64 61 58 55 51 48 46 46 47 47 48 48 47 47 47 46 45 43 41 39 37 35 33
16 18 21 24 26 28 30 32 35 38 39 42 45 48 50 54 56 57 61 62 62 60 56 53 51 50 49 49 50 51 51 51 51 50 49 48 47 46 45 43 41 39 37 35
20 21 23 25 28 30 32 34 37 40 41 44 48 51 54 57 61 62 63 62 59 55 53 52 51 51 51 52 53 53 53 53 52 52 51 50 49 47 46 45 43 41 40 38
19 21 23 26 28 31 34 36 38 40 43 47 50 54 57 60 63 64 62 59 55 53 53 52 52 52 53 53 53 53 51 51 51 50 49 48 48 48 47 46 44 42 40 38
20 22 24 28 30 32 34 37 40 43 46 50 53 56 59 60 61 61 59 55 53 53 52 52 52 52 53 53 52 50 49 48 47 46 45 44 43 42 42 42 41 40 39 38
20 22 25 28 30 33 35 39 43 46 48 51 53 56 59 60 60 59 55 53 52 52 52 52 52 52 51 51 50 48 46 46 45 43 41 39 37 36 36 37 37 37 37 36
21 23 25 27 30 33 36 39 42 45 47 50 53 56 58 59 58 56 53 51 51 52 51 51 51 51 49 48 47 45 43 42 40 36 33 32 30 29 29 30 30 31 32 32
22 24 26 27 30 33 35 38 41 44 47 50 52 55 57 58 56 54 52 51 51 51 51 51 52 50 48 48 46 44 41 39 35 31 28 25 23 21 21 21 22 23 26 28
23 25 27 29 31 34 36 39 42 45 48 51 53 55 56 56 55 53 51 50 50 50 50 51 51 49 48 47 45 43 39 36 32 28 24 21 17 14 12 12 15 18 20 22

GEFSCGP_500_meanwind_048.txt.gz
Wind_Speed
14 14 15 16 16 17 18 18 19 22 23 23 22 21 20 20 21 24 26 28 30 32 35 37 38 39 41 42 42 43 42 41 40 40 38 35 33 32 28 25 22 20 21 22
11 12 13 14 14 15 17 18 19 21 22 23 24 23 22 22 24 26 28 30 32 35 37 40 41 43 44 44 44 45 45 43 41 39 38 35 34 31 27 23 21 20 19 20
9 10 11 12 13 13 15 16 18 20 22 23 25 25 24 25 26 28 31 33 35 37 39 41 43 44 44 44 44 45 45 44 42 40 37 35 34 33 29 26 24 23 23 22
7 8 9 10 11 12 13 14 16 18 20 21 22 23 23 25 26 29 31 32 34 35 37 38 38 39 41 41 42 43 43 42 40 38 37 37 36 34 33 30 28 27 26 26
4 5 6 8 8 9 10 10 11 12 14 14 16 18 19 20 22 24 26 28 30 31 32 31 31 33 35 36 38 39 40 40 40 39 39 39 39 38 36 35 34 32 30 30
3 4 5 5 6 6 7 7 8 9 10 11 13 15 16 17 19 20 23 25 26 29 30 31 32 33 35 37 39 40 41 42 43 43 44 44 43 42 42 41 40 39 37 36
3 2 3 4 5 6 7 9 10 10 9 11 13 15 16 17 19 21 23 25 28 30 32 34 34 35 37 38 39 41 43 44 45 46 47 47 47 47 47 46 45 45 44 43
2 2 2 4 5 7 9 11 13 13 13 14 15 16 17 19 22 24 27 29 31 33 35 36 37 38 39 40 41 43 44 45 47 48 49 50 51 51 51 51 51 50 50 49
3 3 4 5 7 8 10 11 12 14 15 16 16 17 19 22 24 27 30 32 34 36 37 39 40 42 43 44 45 47 49 50 50 52 53 53 54 55 55 56 56 56 56 56
5 5 6 7 9 9 10 11 13 15 17 18 18 20 23 25 28 31 33 35 37 39 41 42 44 45 47 48 50 52 53 55 55 55 55 54 54 55 56 56 57 58 59 60
7 7 8 9 9 10 11 13 15 17 19 21 24 25 26 29 31 34 36 38 40 42 44 46 48 50 52 54 56 56 57 57 56 56 55 54 53 53 52 51 51 53 55 58
8 9 9 10 10 11 13 15 17 19 21 23 26 27 29 32 34 36 38 41 43 45 48 50 52 54 56 57 58 58 58 57 56 56 55 54 52 50 47 45 44 45 47 50
9 10 11 11 12 13 15 17 18 20 22 24 27 29 32 34 36 38 41 44 46 49 51 53 55 56 58 58 58 58 58 58 57 56 55 53 50 47 45 43 42 41 40 41
11 11 11 12 12 14 15 17 19 21 23 26 28 30 32 35 37 40 43 46 48 50 52 53 55 57 57 57 57 57 57 58 57 56 55 53 51 48 46 44 42 41 40 38
12 13 13 13 14 15 16 18 21 23 25 28 30 32 34 37 40 43 45 48 49 50 52 54 55 55 55 55 56 56 57 58 57 57 56 54 53 51 49 47 44 43 41 40
13 14 15 15 15 16 18 20 23 25 27 29 31 33 36 39 42 45 47 49 50 51 53 54 54 53 53 54 55 56 57 57 57 57 56 55 54 52 51 49 47 45 44 42
13 14 15 16 16 17 20 22 24 26 28 31 34 36 39 40 44 47 49 50 51 53 53 53 52 52 53 54 56 56 56 56 56 56 55 54 53 52 50 49 47 46 44 44
12 14 16 17 18 19 22 24 26 27 29 32 35 38 41 43 45 48 51 52 53 53 52 52 51 52 53 55 56 57 57 56 56 55 53 51 50 48 47 47 46 45 44 43
13 16 17 18 20 21 24 26 28 30 31 34 37 40 43 45 45 46 49 51 52 52 52 52 52 53 54 56 57 57 56 55 55 53 51 49 48 46 44 44 43 42 42 41
16 17 19 21 23 25 26 27 30 32 33 36 39 42 45 48 49 49 51 52 53 52 52 53 53 53 55 56 57 56 55 54 53 52 49 47 45 43 41 39 38 38 39 38
19 20 21 22 23 24 26 28 31 33 36 38 41 43 46 49 51 53 54 54 54 53 53 53 52 53 55 56 56 55 54 53 53 50 47 44 41 39 37 35 33 32 34 35
20 21 22 23 23 25 27 29 31 33 35 38 41 44 47 49 51 53 54 54 53 52 52 52 52 53 55 56 56 54 53 52 51 48 45 41 38 35 32 30 28 27 28 30
21 22 23 23 25 26 28 30 31 33 36 38 41 44 47 50 52 53 54 54 53 51 51 51 51 53 54 56 56 53 52 51 49 45 41 38 33 30 27 24 22 22 23 24
21 22 22 23 25 26 28 29 32 34 37 39 42 45 48 50 52 53 54 54 52 51 50 50 50 52 53 55 55 53 51 49 46 43 38 35 30 26 23 19 16 16 17 19
22 22 23 24 25 27 28 31 33 35 37 40 43 45 48 50 52 53 54 54 52 50 49 49 50 51 53 54 54 52 50 47 44 41 37 32 28 25 21 16 12 9 9 12
22 23 24 25 27 28 30 32 34 35 37 40 42 45 47 50 52 53 54 53 52 50 48 48 48 50 52 53 53 52 50 46 43 40 35 31 27 24 20 16 11 6 2 6

GEFSCGP_500_meanwind_054.txt.gz
Wind_Speed
6 5 5 7 7 8 9 8 10 14 16 17 19 21 22 23 23 23 23 23 23 25 27 29 31 33 35 37 39 41 42 43 43 43 42 41 41 40 37 34 34 33 31 30
2 4 6 5 6 7 7 7 9 12 14 15 17 19 20 21 22 23 23 23 25 26 28 31 33 35 36 38 40 40 41 42 43 43 42 41 41 40 37 37 36 34 32 30
3 6 5 5 5 5 6 6 9 11 12 13 13 15 16 17 18 20 21 22 23 25 27 30 31 33 34 36 37 37 38 39 40 40 39 40 40 39 38 37 36 34 34 32
4 6 5 5 6 5 6 8 8 9 8 10 8 10 13 14 16 17 19 21 23 25 27 28 30 32 33 35 36 37 37 38 38 39 40 41 41 41 40 39 39 38 37 36
5 5 5 5 6 5 7 6 6 7 7 8 9 8 16 15 16 18 19 21 23 25 27 29 31 33 35 36 37 37 38 39 40 40 41 42 43 43 43 43 43 42 41 39
4 4 4 4 5 5 5 5 6 7 8 9 12 10 16 16 18 20 21 23 25 27 30 32 33 34 35 37 38 40 40 41 42 43 44 45 46 46 47 47 47 46 45 44
5 4 3 4 4 5 5 6 8 9 9 12 15 14 16 17 20 21 23 25 27 29 31 32 33 35 37 38 40 41 42 43 44 45 46 47 48 49 49 50 51 51 51 50
5 6 5 4 5 6 6 7 7 8 9 12 16 16 17 18 20 21 24 26 27 29 31 33 34 36 38 40 41 42 43 43 44 45 46 47 47 48 49 49 50 52 53 53
4 6 5 5 5 6 6 6 7 8 10 11 14 16 16 18 19 21 24 25 27 29 32 34 36 38 40 41 42 42 43 43 44 44 45 45 45 46 46 47 48 49 50 52
5 5 5 5 5 5 5 6 7 8 9 10 14 18 18 19 21 23 25 27 29 32 34 36 38 40 41 42 43 43 44 43 43 43 44 44 45 46 47 48 49 50 51 51
5 6 6 6 5 5 6 7 8 10 10 11 12 18 19 21 23 25 28 30 32 35 37 39 40 41 43 44 44 44 43 43 43 43 44 45 46 47 48 49 50 50 51 52
5 6 6 6 6 7 8 9 10 11 13 14 15 19 20 22 25 27 30 32 35 37 39 41 42 44 44 44 44 43 43 44 45 45 46 46 47 48 49 49 49 50 51 52
6 6 6 8 9 9 10 10 11 12 14 15 16 21 22 24 27 30 32 35 38 40 41 42 44 45 44 44 44 44 44 45 45 46 47 47 48 50 50 50 50 50 51 51
6 6 5 7 9 12 12 12 13 14 16 17 19 21 24 27 30 33 35 38 40 42 43 44 45 45 44 44 44 44 44 45 46 47 48 49 50 51 51 51 51 51 51 51
6 7 8 9 11 13 13 14 15 16 17 18 21 23 26 29 32 35 37 39 41 43 44 45 46 45 44 44 43 44 44 46 47 49 50 51 52 52 52 52 52 51 50 50
8 9 10 12 13 14 15 15 16 18 19 20 22 25 28 30 34 36 39 41 43 44 45 46 46 45 44 43 43 44 45 47 49 51 52 52 52 52 52 51 51 50 49 48
10 11 12 14 15 15 15 16 17 19 21 22 24 27 29 32 35 38 40 43 45 46 47 48 47 45 43 43 44 45 47 49 51 52 52 52 51 51 51 49 48 46 44 44
12 14 15 16 16 16 16 17 18 19 21 23 25 28 30 33 36 39 41 44 46 47 48 48 47 45 44 44 45 47 49 51 52 52 52 51 50 49 48 46 43 41 39 39
14 15 16 16 17 18 17 18 19 20 20 23 26 28 31 34 37 41 43 45 48 49 49 49 48 46 44 45 46 47 49 51 52 52 52 50 48 46 44 42 38 36 35 34
15 15 17 17 18 19 20 20 21 22 23 25 27 30 32 35 37 40 44 46 48 49 50 49 48 46 45 45 46 48 50 51 52 51 50 48 47 44 41 38 34 31 30 29
16 17 17 18 20 21 21 22 23 24 26 27 29 31 34 37 40 42 45 47 49 50 50 49 47 46 45 45 46 48 50 51 51 51 49 47 44 40 37 34 30 26 24 23
17 18 19 19 20 22 22 22 23 25 26 28 30 32 35 38 41 44 46 48 50 50 49 48 47 45 45 45 46 48 49 51 51 50 47 44 41 37 34 30 26 22 19 17
18 19 20 20 21 22 22 23 24 25 27 29 30 33 36 39 42 45 47 49 50 50 49 48 46 45 45 45 46 47 49 49 49 48 45 42 38 35 31 28 23 19 16 13
19 19 20 20 21 22 23 23 24 26 27 29 31 34 37 40 44 46 48 49 50 49 48 48 46 44 44 44 46 47 48 47 48 47 44 40 37 34 30 27 23 19 15 10
20 20 20 21 21 22 22 23 25 26 28 30 33 36 39 42 45 48 50 50 50 49 48 47 45 43 43 43 45 46 46 45 46 45 42 39 36 33 29 26 23 19 15 10
20 20 21 21 22 22 23 24 26 27 29 32 34 37 40 44 47 49 50 49 49 48 47 46 45 43 41 42 43 44 44 44 44 42 40 38 35 33 29 25 22 19 15 10

GEFSCGP_500_meanwind_060.txt.gz
Wind_Speed
5 5 5 3 6 8 7 8 10 12 13 12 15 20 21 22 23 22 22 21 22 22 23 24 26 27 29 31 33 35 37 39 41 42 44 44 44 46 46 46 45 43 42 41
7 7 6 4 4 6 7 10 13 14 16 16 16 20 20 20 19 18 18 19 20 20 21 23 24 26 28 30 33 35 36 39 41 42 43 44 44 44 45 45 44 43 42 41
12 7 7 6 5 7 9 12 15 16 16 15 15 18 18 16 14 14 15 17 18 20 21 23 24 26 28 30 31 34 36 38 39 41 42 43 43 44 45 45 44 42 42 42
9 6 5 6 7 10 11 11 13 14 15 15 16 19 18 14 10 11 14 17 18 20 21 23 24 26 28 30 32 34 35 37 39 40 42 43 44 45 45 46 46 45 44 43
5 7 6 7 9 9 8 10 13 15 17 19 20 20 14 11 11 11 16 19 20 21 22 24 26 27 29 31 33 35 36 37 39 41 42 44 45 45 46 46 46 46 45 44
1 4 6 6 7 8 8 10 14 16 19 22 19 13 11 13 17 18 19 20 21 23 24 26 28 29 30 32 35 36 38 38 40 41 43 44 45 45 46 46 46 46 46 46
6 4 5 7 7 7 7 11 15 18 20 14 9 9 9 16 18 20 21 22 24 25 26 27 29 31 32 35 37 38 39 40 41 42 43 44 44 45 45 46 46 46 46 46
12 10 9 8 9 7 6 9 14 17 21 17 11 10 11 17 18 20 22 23 25 27 28 30 32 33 36 38 39 40 41 41 42 43 43 43 43 44 43 43 44 44 44 45
10 10 11 11 10 9 7 7 8 10 13 16 18 18 17 17 20 21 23 24 26 29 31 33 34 36 38 40 41 42 43 43 43 43 42 42 42 41 42 42 43 44 45 46
8 8 8 11 11 10 10 9 8 7 7 9 14 19 20 21 22 24 25 27 28 30 32 34 37 39 40 41 42 43 44 44 43 42 41 40 41 41 42 43 44 46 47 48
8 6 6 8 11 11 10 9 9 8 8 7 11 20 23 24 24 25 26 28 30 32 33 35 37 39 41 42 43 44 45 44 43 41 40 40 41 42 43 45 46 47 47 48
7 6 5 8 8 8 9 11 10 10 11 10 11 21 24 25 25 26 28 30 32 33 35 37 39 41 42 43 44 44 44 43 42 41 41 42 43 44 45 46 48 49 49 50
7 6 7 11 8 8 11 13 12 11 10 10 11 19 26 28 27 28 30 31 33 35 37 39 40 42 44 44 44 44 43 43 42 42 42 43 44 46 47 48 50 50 50 51
8 6 5 8 10 11 13 14 13 13 12 13 16 20 25 26 26 28 30 32 34 36 38 40 42 44 44 45 45 44 43 43 42 43 43 44 45 47 48 50 51 51 51 50
7 8 8 8 9 11 12 13 14 15 16 16 18 21 26 26 28 29 30 33 35 38 40 42 44 45 45 45 45 44 43 43 43 43 44 45 46 48 49 50 50 50 50 49
9 9 9 8 10 11 12 14 16 17 18 19 21 23 26 27 29 30 30 33 36 38 41 43 45 46 46 45 45 44 44 44 44 44 44 46 47 48 48 49 49 49 49 48
11 11 9 8 9 10 13 15 19 20 21 23 25 26 27 27 29 30 31 33 37 40 43 45 46 47 46 46 45 45 45 45 44 44 45 46 47 48 49 50 49 49 47 47
11 12 12 10 9 12 16 17 20 23 23 24 24 26 28 29 32 34 34 37 40 43 45 46 47 47 46 46 46 46 46 45 45 45 46 46 47 48 49 49 47 45 44 43
14 13 13 13 10 12 18 21 21 24 25 23 24 25 27 28 31 37 38 40 43 45 46 47 47 47 47 46 46 46 45 45 45 45 45 46 47 48 48 46 43 42 41 39
17 16 15 15 14 13 18 22 23 26 28 25 26 27 29 30 31 34 38 40 43 44 46 47 47 47 47 47 46 46 45 45 45 45 45 46 47 47 45 43 41 39 37 34
21 19 18 18 17 17 23 24 25 26 28 28 28 29 30 32 33 36 38 41 43 44 46 46 47 47 47 47 46 45 45 45 45 45 45 45 46 44 42 41 39 36 34 31
19 19 20 20 20 22 26 28 27 26 26 27 28 29 30 32 35 37 40 42 43 44 45 45 46 47 47 47 46 45 44 44 44 44 44 45 44 42 40 39 36 34 32 29
19 21 21 21 23 27 27 27 27 27 26 26 27 29 31 33 36 38 41 43 43 44 44 45 46 46 47 47 46 44 43 43 43 44 43 43 42 40 39 38 35 32 30 27
22 26 24 23 23 27 27 27 27 26 26 27 28 30 32 35 37 40 42 43 43 42 43 45 46 46 46 46 46 44 43 42 42 43 42 41 40 38 37 36 33 31 29 26
21 25 26 26 26 26 26 26 26 27 27 29 30 32 34 36 38 41 42 43 42 42 43 44 46 46 46 46 45 44 42 41 41 42 42 40 38 37 36 34 32 31 28 25
22 24 26 26 26 27 27 27 27 28 29 30 32 34 36 38 39 41 42 42 42 42 43 44 45 46 46 45 44 43 41 40 40 40 40 39 37 36 34 33 31 30 28 25

GEFSCGP_500_meanwind_066.txt.gz
Wind_Speed
4 4 3 1 3 5 7 6 6 9 12 16 18 20 21 22 22 22 21 21 20 19 20 20 21 22 23 24 26 28 29 30 31 32 34 36 38 39 40 41 41 41 41 41
6 4 3 3 4 5 7 8 8 9 9 13 16 18 19 21 21 19 19 19 16 16 16 18 19 21 22 24 26 27 28 30 32 34 35 37 39 40 41 42 42 43 43 42
8 5 4 4 6 7 7 8 9 9 9 11 15 18 19 17 19 17 15 13 11 11 13 15 17 19 20 22 24 26 28 31 33 34 36 37 39 41 42 43 43 43 43 42
9 6 4 5 5 7 6 7 7 9 11 13 13 13 13 12 11 10 9 9 8 9 11 13 15 18 20 22 24 27 29 31 33 35 37 38 40 41 42 43 43 43 42 42
8 6 5 5 6 6 6 8 8 8 9 10 10 9 7 6 7 7 7 6 5 8 10 13 15 18 20 22 24 26 28 31 33 35 36 38 39 40 41 42 42 42 41 41
7 6 5 6 8 8 8 8 8 8 9 10 8 7 4 3 5 5 5 6 8 10 12 14 17 19 21 23 25 28 30 31 33 35 36 37 38 39 39 40 40 40 39 39
7 7 7 6 7 6 8 9 8 8 9 11 11 11 10 9 8 8 8 10 11 12 14 17 20 23 25 27 29 31 32 34 35 36 37 38 38 38 39 38 38 38 38 37
8 7 7 6 7 7 7 8 8 9 9 9 10 11 11 10 9 9 11 12 14 16 19 22 24 26 29 31 33 34 36 37 38 38 39 39 39 39 39 39 39 39 39 38
10 9 9 7 7 7 7 7 8 8 8 8 9 10 12 11 11 13 14 16 18 21 23 26 28 30 32 35 36 38 39 39 39 39 39 39 39 39 39 39 39 40 40 40
10 9 8 8 8 8 8 8 8 8 9 9 10 12 15 14 15 16 17 20 22 24 27 29 31 33 35 37 39 40 41 41 41 40 40 39 39 39 40 40 40 40 40 41
9 8 7 8 7 7 7 8 9 9 11 12 14 16 17 17 18 20 22 24 26 28 29 31 33 35 38 39 41 42 42 42 41 41 41 40 40 41 41 41 41 41 42 42
8 7 6 6 5 5 6 9 10 11 12 14 17 18 19 21 23 24 25 26 27 28 30 32 35 38 39 40 41 42 42 41 41 41 41 41 41 42 42 42 42 42 42 43
7 7 7 5 4 5 7 9 11 12 13 16 18 20 21 23 24 25 25 26 27 29 32 34 37 39 40 41 41 41 41 41 41 41 42 42 42 42 42 42 42 42 42 43
6 7 6 6 7 7 7 9 11 13 14 16 18 20 22 23 24 24 25 27 29 31 34 36 38 39 40 41 41 41 41 41 42 42 42 42 42 42 42 41 41 41 42 43
5 6 7 7 8 8 9 9 12 14 16 18 20 22 23 24 24 25 26 28 30 33 35 37 39 40 41 42 42 42 42 42 43 43 43 43 43 42 42 41 41 41 42 43
4 5 6 7 8 9 10 11 13 15 18 20 22 24 24 24 25 25 26 28 31 34 36 38 40 41 42 42 42 42 43 43 43 44 44 43 43 42 42 41 41 42 41 41
6 6 6 7 8 9 10 11 13 15 17 20 22 24 24 24 25 25 26 29 32 35 37 39 41 42 42 42 43 43 43 44 44 45 44 44 43 42 42 42 41 41 41 41
7 7 8 9 9 11 11 12 13 16 18 20 22 24 24 25 25 25 28 31 34 36 39 40 41 42 42 43 43 44 45 45 45 45 45 44 43 42 42 41 40 40 40 40
7 8 10 11 12 12 13 14 15 18 20 21 23 24 25 26 27 28 30 33 36 38 39 41 41 41 42 43 44 45 45 45 45 45 45 44 43 42 41 40 39 39 39 39
9 10 12 13 14 14 13 15 17 19 21 22 23 24 25 26 28 30 32 34 37 39 40 40 41 41 42 43 44 45 45 45 45 45 44 43 42 41 40 39 39 39 38 37
13 14 15 15 17 17 18 19 21 22 23 23 24 25 26 27 28 30 33 35 38 39 39 40 41 41 42 43 44 46 45 45 46 45 44 43 42 41 40 39 39 38 37 36
18 19 20 20 21 22 22 22 22 23 23 24 24 25 27 28 30 32 34 36 38 39 39 40 41 41 42 44 45 46 46 46 46 46 44 43 42 41 40 39 38 37 36 35
22 22 23 23 23 22 22 23 22 22 22 23 24 26 27 29 31 33 35 37 38 38 39 40 41 42 43 44 46 46 46 46 46 45 44 43 41 40 40 39 37 36 34 34
22 24 25 25 24 23 23 23 22 22 22 24 25 26 28 29 31 34 36 37 38 38 39 40 41 42 43 44 46 46 46 46 46 45 44 42 40 40 40 37 36 34 33 32
21 24 25 25 24 24 24 24 25 25 25 26 28 29 30 31 34 35 37 38 38 38 39 41 42 43 44 45 46 46 46 45 45 45 43 41 40 40 38 37 35 33 32 30
21 24 25 25 24 25 25 25 26 27 28 29 30 31 32 34 36 37 38 39 39 39 40 41 43 43 44 45 46 46 46 45 44 44 42 40 39 39 38 36 34 32 31 29

GEFSCGP_500_meanwind_072.txt.gz
Wind_Speed
8 8 7 7 7 7 7 7 8 9 11 13 14 17 19 21 21 22 22 22 22 22 21 19 19 19 19 19 19 20 21 22 23 25 26 28 29 30 32 33 34 35 36 36
8 8 7 6 6 7 7 7 7 7 8 10 12 15 17 19 20 19 19 20 19 19 17 18 19 17 18 19 19 21 22 24 25 27 29 30 32 33 34 36 37 37 38 38
8 7 6 6 5 5 6 5 5 5 7 8 10 11 13 15 16 16 17 17 16 17 18 17 17 17 17 18 20 22 24 26 27 29 30 32 33 34 35 36 37 37 38 38
7 7 7 6 5 6 6 5 5 5 6 6 7 8 8 9 11 12 13 13 14 15 15 15 15 16 18 19 22 23 25 27 28 30 31 33 34 35 36 36 37 37 37 37
6 6 7 7 6 7 6 5 4 4 4 4 4 5 4 4 4 7 8 9 10 11 12 12 14 16 18 20 21 23 25 26 28 30 31 33 34 34 35 35 35 35 36 36
6 6 6 6 6 7 6 4 3 3 3 2 2 3 4 4 4 5 6 7 9 10 11 12 13 15 17 19 21 23 25 27 28 30 31 32 32 32 33 33 33 34 34 34
7 6 6 5 5 5 5 4 3 2 2 2 3 4 4 4 3 4 5 7 8 9 11 12 14 16 18 20 22 24 26 28 29 30 31 31 32 32 32 33 33 33 34 35
7 6 6 6 5 6 6 5 4 4 4 4 4 5 5 5 5 5 6 7 9 10 12 13 15 17 19 21 24 26 27 29 30 31 31 31 32 32 33 33 34 34 35 36
8 7 6 6 6 6 5 5 5 5 5 5 4 5 6 6 6 7 8 9 10 12 13 14 16 18 21 23 25 27 29 30 31 31 32 32 32 33 33 34 35 36 36 36
9 8 7 6 6 6 6 7 6 5 5 4 4 4 6 7 7 8 9 10 11 11 13 15 18 20 23 25 27 29 31 31 32 32 33 33 34 34 35 36 37 37 37 38
9 8 7 8 7 7 7 7 7 6 6 5 4 4 6 7 8 10 10 11 12 13 15 18 20 23 25 27 30 31 32 33 33 34 34 35 36 36 37 38 38 38 38 39
9 8 7 7 6 6 6 7 6 5 5 5 6 7 8 9 10 11 12 13 14 16 18 20 23 25 27 29 31 33 34 34 35 35 36 37 38 39 39 40 40 40 40 40
9 8 7 7 7 7 7 7 6 5 6 7 8 10 11 12 13 14 15 16 17 19 21 23 25 27 29 31 33 34 35 35 36 37 38 39 40 40 41 41 41 41 41 40
9 9 8 9 9 8 8 8 8 8 8 9 10 12 13 15 16 16 17 19 20 21 23 25 27 29 31 32 34 35 36 37 38 39 40 41 41 42 42 42 42 42 41 41
9 9 9 10 10 9 8 8 9 9 9 11 12 14 15 17 18 19 20 20 21 23 24 27 29 30 32 34 35 36 37 38 39 41 41 42 43 43 44 44 44 43 42 41
10 10 10 9 10 9 8 8 9 10 10 12 14 16 17 19 19 20 20 21 22 24 26 28 30 32 34 35 36 37 38 39 41 42 43 44 44 44 45 45 44 43 42 41
10 10 10 9 9 8 8 8 9 11 12 14 16 18 19 20 20 20 21 22 23 26 28 30 32 34 35 35 36 38 39 40 42 43 44 45 45 45 46 45 44 43 42 41
10 10 10 9 9 8 8 9 10 11 14 16 17 18 19 20 20 20 21 23 25 27 29 32 33 34 35 36 37 39 40 42 44 45 46 46 46 46 46 45 44 43 42 41
11 11 11 9 9 8 8 10 11 13 14 17 18 18 19 19 20 21 23 24 26 28 31 33 34 35 36 37 38 40 42 43 45 46 47 47 47 47 46 45 44 43 42 41
12 12 12 11 11 9 10 11 13 14 15 17 18 18 19 20 21 22 24 25 27 29 31 33 35 36 37 38 39 41 43 45 46 47 47 47 47 47 46 45 44 42 42 41
14 14 14 13 13 12 13 14 15 17 18 18 19 20 21 22 23 24 26 27 28 30 32 34 35 36 37 39 41 42 44 46 47 48 48 48 47 47 47 45 43 42 42 41
16 16 16 15 16 17 16 16 17 18 19 20 21 22 23 24 25 26 27 28 29 31 33 34 36 37 38 40 42 44 45 47 48 48 48 48 48 47 46 44 43 42 41 39
19 19 19 18 18 18 18 18 18 19 21 22 23 24 25 25 26 28 29 29 30 32 34 36 37 38 39 41 43 44 47 48 49 49 49 49 48 47 45 44 42 41 40 38
21 22 22 21 20 20 21 20 21 22 22 23 24 26 26 27 28 29 30 31 32 34 36 37 38 39 41 43 44 46 48 49 49 49 48 48 47 45 44 42 41 40 38 37
22 24 25 24 23 23 22 22 23 24 24 25 26 27 28 29 30 31 32 33 34 35 36 38 40 41 42 44 46 48 49 49 49 48 47 47 45 43 42 41 40 39 38 37
24 26 27 26 25 26 25 25 25 25 26 26 27 28 29 30 31 32 33 35 35 36 38 39 41 43 44 46 48 49 50 50 49 47 46 45 44 42 40 39 39 38 37 36

GEFSCGP_500_meanwind_078.txt.gz
Wind_Speed
11 11 10 9 8 8 8 7 8 8 7 6 7 9 10 13 14 15 15 15 16 17 17 17 17 15 15 16 16 16 17 17 17 18 19 19 20 21 23 24 25 26 26 27
9 9 8 8 8 7 8 7 8 8 7 7 7 8 10 11 12 13 13 13 13 14 15 14 13 13 14 14 15 15 16 17 18 19 19 20 22 23 24 26 26 27 27 28
6 7 8 8 7 7 7 7 7 7 7 7 7 7 8 8 9 10 11 12 13 14 13 12 12 13 13 14 15 17 17 17 18 19 20 22 23 24 25 27 27 28 28 29
6 7 8 8 7 7 7 6 7 7 7 7 6 7 6 5 6 7 9 10 10 11 10 11 12 13 13 15 16 17 17 17 18 20 21 23 24 25 26 27 28 28 29 29
7 7 7 8 7 7 7 7 7 7 7 6 6 6 6 6 6 7 7 7 8 9 10 11 11 12 13 15 16 16 17 18 20 21 23 23 24 25 26 27 27 28 28 28
7 7 7 8 8 8 7 7 7 7 6 6 7 7 8 7 6 5 6 6 7 8 9 10 11 13 14 15 16 17 19 20 21 22 23 23 24 24 25 26 27 27 28 28
9 9 8 8 9 8 7 6 6 7 7 7 7 7 8 8 7 7 7 7 7 8 10 11 13 14 14 16 17 18 20 21 22 22 23 23 24 25 26 27 27 27 28 29
8 10 10 9 9 8 7 5 4 4 5 8 8 8 9 9 9 8 8 7 8 9 11 12 13 14 15 16 18 19 20 21 22 22 23 23 24 26 26 27 27 28 29 30
9 11 11 10 9 8 7 6 5 5 6 7 8 9 9 9 9 8 8 9 10 11 12 13 14 15 16 17 19 19 21 22 22 23 23 24 25 27 27 28 28 29 30 31
10 10 11 10 9 9 8 7 5 3 4 5 9 9 9 9 9 9 9 10 11 12 12 13 14 15 17 18 19 20 21 21 22 23 24 25 26 27 28 29 30 31 32 33
10 9 10 10 9 9 8 6 5 4 5 2 5 9 9 9 9 10 10 10 11 11 12 13 15 16 17 18 19 20 21 22 23 24 25 26 28 29 30 31 33 34 35 36
9 8 9 10 10 8 7 6 6 5 6 5 4 10 10 9 10 10 10 11 11 12 12 14 15 16 17 18 19 21 22 23 24 25 27 28 30 32 33 35 36 37 38 38
10 9 7 9 10 10 9 8 8 7 7 7 6 10 12 11 11 11 11 12 12 12 13 14 15 16 18 19 21 22 23 24 25 27 29 31 33 34 36 37 38 39 40 40
11 10 8 9 11 11 10 10 9 9 8 9 10 12 13 13 13 12 12 13 13 13 14 15 16 17 19 20 21 23 24 25 27 29 32 34 35 37 38 39 40 41 42 42
12 11 11 11 11 11 11 12 11 11 11 11 12 13 14 14 14 13 13 13 14 14 15 16 17 19 20 21 23 24 26 27 29 31 34 36 37 39 41 41 42 43 43 42
13 12 11 11 11 11 10 11 11 12 13 13 13 14 14 15 14 14 14 14 15 15 16 18 19 20 21 23 24 26 28 29 32 34 36 38 40 41 42 43 43 43 43 43
13 12 11 10 11 11 10 11 12 12 13 13 13 15 15 15 15 15 15 15 16 16 18 19 20 21 23 24 26 28 29 31 34 36 38 40 42 43 44 44 44 44 43 42
14 13 12 10 11 11 12 13 12 13 13 14 15 15 16 16 16 16 16 16 17 18 19 20 22 23 24 25 27 29 31 33 35 37 39 41 43 44 44 45 44 44 43 41
15 14 13 12 11 12 13 14 13 14 14 16 16 17 17 17 17 17 17 17 18 19 20 22 23 24 25 27 28 30 32 34 36 39 41 43 44 45 45 45 44 44 42 40
16 15 15 15 14 13 15 16 15 15 16 18 18 19 19 18 18 18 18 19 19 21 22 23 24 26 27 28 30 31 33 35 38 41 43 44 45 46 46 45 45 43 41 40
18 17 17 17 17 16 19 17 17 17 19 20 20 20 20 19 19 20 20 20 21 22 24 25 26 27 28 29 31 33 35 38 40 43 45 46 46 47 46 46 44 43 41 39
19 19 19 19 19 19 21 19 19 21 22 22 22 22 22 21 21 22 22 22 23 24 25 26 28 28 29 31 33 35 37 40 42 45 46 47 47 47 47 46 44 42 40 38
21 21 21 20 21 23 22 22 22 23 23 23 23 23 24 23 24 24 24 25 25 26 27 28 29 30 32 33 34 36 39 41 44 46 47 48 48 47 47 46 43 41 40 38
23 23 23 23 24 24 24 24 24 24 24 24 25 25 25 26 26 26 27 27 28 29 30 31 32 33 35 36 37 38 41 43 46 47 48 49 48 48 46 45 43 41 39 37
26 25 24 24 25 25 26 26 25 25 25 26 26 27 28 28 28 28 29 29 31 32 33 34 35 37 38 38 39 41 43 45 47 48 50 50 49 47 45 43 42 40 38 36
26 26 26 27 27 26 27 27 27 27 27 27 28 28 29 29 29 30 31 32 33 34 35 36 38 40 41 40 42 44 46 47 48 50 51 50 49 47 44 42 41 39 37 36